Kuchera_Ratio
12.2 11.2 10.7 10.0 8.0 8.4 4.6 7.8 1.3 4.0 3.6 3.2 1.1 0.0 0.0 0.0 0.1 0.0 0.0 0.7 0.0 0.1
13.9 13.2 12.9 12.3 11.3 10.8 9.9 8.6 7.6 7.3 4.6 4.8 6.3 3.4 2.7 2.7 3.1 2.4 1.1 0.8 0.8 0.7
15.3 14.3 13.7 13.0 13.0 12.4 12.0 11.7 11.2 10.0 7.8 7.9 7.4 7.4 7.4 7.0 6.6 3.3 5.7 5.1 3.9 3.8
17.1 15.9 14.9 14.6 14.0 13.2 12.3 11.8 12.3 12.2 11.8 11.5 10.0 8.2 7.7 7.9 7.8 7.9 7.9 7.1 7.1 7.2
18.7 17.7 17.1 16.5 15.5 14.3 13.9 12.7 12.4 12.2 12.6 12.6 12.5 12.0 11.0 10.5 9.2 9.5 9.6 8.8 8.0 8.1
19.8 19.2 18.9 18.2 17.2 16.1 15.2 14.5 13.7 13.1 13.0 12.6 12.3 12.5 12.7 12.6 12.4 12.4 12.0 11.2 11.1 11.4
20.7 20.5 20.1 19.4 18.5 17.8 16.7 16.2 15.5 14.9 14.4 13.5 12.4 11.3 11.8 12.2 12.9 13.2 12.8 12.4 12.0 12.0
21.8 21.4 21.1 20.6 20.2 19.3 18.4 17.6 16.3 16.0 15.8 15.2 13.6 8.6 12.2 12.3 13.1 13.6 13.2 12.9 12.1 9.7
22.5 22.2 21.7 21.4 21.1 20.6 20.3 19.4 18.3 17.6 17.1 16.8 14.3 5.8 5.2 11.6 13.3 13.0 13.3 13.5 12.7 10.7
23.2 22.8 22.5 22.2 21.9 21.6 21.4 20.5 19.5 19.2 18.9 18.4 16.3 8.1 7.0 9.3 14.0 13.7 13.8 13.5 13.2 12.3
23.8 23.4 23.0 22.8 22.6 22.4 22.3 21.9 20.3 20.4 20.2 19.8 17.1 12.6 10.7 11.4 15.0 15.0 14.5 13.8 13.3 13.4
24.2 23.9 23.5 23.1 22.8 22.6 22.4 22.1 21.1 20.0 21.4 21.4 20.1 14.4 12.6 13.6 15.3 14.8 14.4 12.9 13.8 13.1
24.6 24.5 24.4 24.1 23.7 23.5 23.3 22.4 21.3 21.1 21.6 19.4 21.5 16.8 14.0 13.8 15.3 17.1 15.0 13.8 13.0 10.9
24.5 24.6 24.5 24.4 24.3 24.3 24.2 24.1 24.2 24.2 23.9 22.1 20.4 20.4 15.2 14.0 15.6 16.3 15.9 15.0 14.6 13.1